Tracking 30743 objects as of 21-Jun-2025
HD Live streaming from Space Station
objects crossing your sky now

NOAA 16 DEB

Track NOAA 16 DEB now!
10-day predictions


NORAD ID: 41066
Int'l Code: 2000-055Z
Perigee: 820.6 km
Apogee: 842.8 km
Inclination: 98.7 °
Period: 101.4 minutes
Semi major axis: 7202 km
RCS: Unknown
Launch date: September 21, 2000
Source: United States (US)
Launch site: AIR FORCE WESTERN TEST RANGE (AFWTR)

Note: This is SATELLITE DEBRIS
Your satellite tracking list
Your tracking list is empty




NASA's NSSDC Master Catalog

Two Line Element Set (TLE):
1 41066U 00055Z   25172.16833599  .00000687  00000-0  34151-3 0  9996
2 41066  98.6887 253.2282 0015440 218.5514 141.4561 14.20229937494771
Source of the keplerian elements: AFSPC